Regional Weather Roundup
Issued by NWS

Home | Current Version | Previous Version | Graphics & Text | Print | Product List | Glossary Off
Versions: 1 2 3 4 5 6 7 8 9 10 11 12 13 14 15 16 17 18 19 20 21 22 23 24 25 26 27 28 29 30 31 32 33 34 35 36 37 38 39 40 41 42 43 44 45 46 47 48 49 50

000
ASUS43 KDMX 171106
RWRIA

WEATHER ROUNDUP FOR IOWA
NATIONAL WEATHER SERVICE DES MOINES IA
500 AM CST TUE JAN 17 2017

NOTE: "FAIR" INDICATES FEW OR NO CLOUDS BELOW 12,000 FEET WITH NO
SIGNIFICANT WEATHER AND/OR OBSTRUCTIONS TO VISIBILITY.

* - THESE STATIONS ARE NOT NWS STATIONS...THUS NOT UNDER NWS
QUALITY CONTROL.  THEY ALSO DO NOT REPORT WEATHER SUCH
AS PRECIPITATION OR FOG.

IAZ001>003-012>014-020>022-031>034-043>046-171200-
   NORTHWEST IOWA

CITY           SKY/WX    TMP DP  RH WIND       PRES   REMARKS
CARROLL *      CLOUDY    34  34 100 NW12      29.95S FOG     WCI  25
CHEROKEE *     CLOUDY    31  31 100 NW5       29.98R FOG     WCI  27
DENISON *      CLOUDY    30  30 100 NW12      29.95S FOG     WCI  21
LE MARS *      CLOUDY    23  23 100 W6G15     30.02R FOG     WCI  16
ORANGE CITY *  CLOUDY    25  25 100 NW10      29.98R FOG     WCI  15
SHELDON *      CLOUDY    30  30 100 NW10      29.96R FOG     WCI  21
SIOUX CITY     CLOUDY    22  18  85 NW17      30.03R WCI   8
SPENCER        CLOUDY    30  29  96 NW12      29.95R FOG     WCI  20
STORM LAKE *   CLOUDY    32  30  93 NW12      29.95R FOG     WCI  23
$$

IAZ055>058-069>071-079>083-090>094-171200-
   SOUTHWEST IOWA

CITY           SKY/WX    TMP DP  RH WIND       PRES   REMARKS
ATLANTIC *     FOG       32  32 100 NW12G18   29.96S VSB 3/4 WCI  23
AUDUBON *      CLOUDY    34  30  86 NW3       29.96S FOG
CLARINDA *     CLOUDY    34  34 100 NW7       30.01R FOG     WCI  28
COUNCIL BLFS * CLOUDY    28  28 100 NW15      29.99R WCI  17
CRESTON *      CLOUDY    32  32 100 NW15      29.96R FOG     WCI  22
HARLAN  *      CLOUDY    30  30 100 NW14      30.00S FOG     WCI  20
LAMONI         CLOUDY    33  33 100 W8        29.96R FOG     WCI  26
RED OAK *      CLOUDY    32  32 100 NW10      29.99R FOG     WCI  24
SHENANDOAH *   CLOUDY    32  32 100 W7        30.01R FOG     WCI  26
$$

IAZ047>049-059>061-072>074-084-171200-
   CENTRAL IOWA

CITY           SKY/WX    TMP DP  RH WIND       PRES   REMARKS
AMES           CLOUDY    33  33 100 NW10      29.92R FOG     WCI  25
ANKENY *       CLOUDY    34  32  93 NW7       29.94R FOG     WCI  28
BOONE *        MIX PCPN  32  32 100 NW10G16   29.92R WCI  24
CHARITON *     CLOUDY    32  32 100 NW12      29.93R FOG     WCI  23
DES MOINES     DRIZZLE   34  32  92 N13       29.93S FOG     WCI  25
GRINNELL*      CLOUDY    32  32  99 NW10      29.89S FOG     WCI  24
KNOXVILLE *    CLOUDY    34  32  93 NW10G17   29.89F FOG     WCI  26
MARSHALLTOWN   CLOUDY    32  32 100 NW12      29.89S FOG     WCI  23
NEWTON *       CLOUDY    32  32 100 NW12G18   29.90R FOG     WCI  23
PELLA *        CLOUDY    33  33  99 NW10G16   29.92R FOG     WCI  25
PERRY *        CLOUDY    33  33 100 NW9       29.94R FOG     WCI  25
$$

IAZ004>006-015-016-023>025-035-036-171200-
   NORTH CENTRAL IOWA

CITY           SKY/WX    TMP DP  RH WIND       PRES   REMARKS
ALGONA *       FOG       32  32 100 N13       29.92S VSB 1/2 WCI  22
CLARION *      CLOUDY    32  32 100 NW9       29.91S FOG     WCI  24
ESTHERVILLE    CLOUDY    29  29 100 N14       29.93R FOG     WCI  18
FORT DODGE *   CLOUDY    32  28  86 CALM      29.94R
MASON CITY     CLOUDY    32  30  92 NW12      29.91R FOG     WCI  23
FOREST CITY *  CLOUDY    32  32 100 N9        29.90S FOG     WCI  24
WEBSTER CITY * CLOUDY    32  32 100 NW14      29.90S FOG     WCI  22
IOWA FALLS *   CLOUDY    33  33  97 NW7       29.91R FOG     WCI  27
$$

IAZ007>011-017>019-026>030-037>042-050>054-066-171200-
   NORTHEAST IOWA

CITY           SKY/WX    TMP DP  RH WIND       PRES   REMARKS
CEDAR RAPIDS   FOG       32  32 100 NW10      29.85S VSB 3/4 WCI  24
CHARLES CITY * CLOUDY    34  34 100 MISG      29.88R FOG
CLINTON *      FOG       34  33  96 W7        29.84S VSB 1/2 WCI  28
DECORAH *      FOG       32  32 100 NW6       29.84S VSB 1/2 WCI  26
DUBUQUE        FOG       33  33 100 NW12      29.83R VSB 1/4 WCI  24
MONTICELLO *   FOG       34  34 100 NW7       29.84F VSB 1/2 WCI  28
OELWEIN *      FOG       32  32 100 NW8       29.86S VSB 3/4 WCI  25
WATERLOO       CLOUDY    33  32  96 NW8       29.88S FOG     WCI  26
$$

IAZ064-065-067-068-078-171200-
   EAST CENTRAL IOWA

CITY           SKY/WX    TMP DP  RH WIND       PRES   REMARKS
DAVENPORT      FOG       34  33  96 W10       29.85R VSB 1/2 WCI  26
IOWA CITY      CLOUDY    35  33  92 NW6       29.88S WCI  30
MUSCATINE *    CLOUDY    36  36 100 W9        29.87S WCI  29
QUAD CITIES    FOG       36  34  92 W9        29.84R VSB 3/4 WCI  29
$$

IAZ062-063-075>077-085>089-095>099-171200-
   SOUTHEAST IOWA

CITY           SKY/WX    TMP DP  RH WIND       PRES   REMARKS
BURLINGTON     CLOUDY    36  36 100 W9        29.89R WCI  29
FAIRFIELD *    CLOUDY    34  34 100 W9        29.89R WCI  26
FORT MADISON * CLOUDY    37  36  93 W9        29.90R FOG     WCI  31
KEOKUK *       CLOUDY    37  37 100 W9        29.91R FOG     WCI  31
OSKALOOSA *    CLOUDY    32  32  99 NW10      29.89S FOG     WCI  24
OTTUMWA        CLOUDY    34  34 100 NW12      29.88S FOG     WCI  25
WASHINGTON *   CLOUDY    34  34 100 W12       29.89R WCI  25
$$

ABBREVIATIONS USED IN REMARKS
   TC - TEMPERATURES IN CELSIUS
  WCI - WIND CHILL INDEX
   HX - HEAT INDEX
  VSB - VISIBILITY
$$





USA.gov is the U.S. government's official web portal to all federal, state and local government web resources and services.